Regional Weather Roundup
Issued by NWS

Home | Current Version | Previous Version | Text Only | Print | Product List | Glossary On
Versions: 1 2 3 4 5 6 7 8 9 10 11 12 13 14 15 16 17 18 19 20 21 22 23 24 25 26 27 28 29 30 31 32 33 34 35 36 37 38 39 40 41 42 43 44 45 46 47 48 49 50
802
ASUS44 KLUB 250001
RWRTX
WEST TEXAS WEATHER ROUNDUP
NATIONAL WEATHER SERVICE LUBBOCK TX
600 PM CST TUE JAN 24 2017

NOTE: "FAIR" INDICATES FEW OR NO CLOUDS BELOW 12,000 FEET WITH NO
SIGNIFICANT WEATHER AND/OR OBSTRUCTIONS TO VISIBILITY.

TXZ004-006>008-010-012-014-016-OKZ002-250100-
TEXAS PANHANDLE/OKLAHOMA PANHANDLE

CITY           SKY/WX    TMP DP  RH WIND       PRES   REMARKS
AMARILLO       CLEAR     50   9  19 W25G35    29.66R
BORGER         CLEAR     54   7  15 W21G37    29.61R
DALHART        CLEAR     49   8  19 W20G33    29.62R
DUMAS          CLEAR     48  11  22 W23G32    29.62R
GUYMON         CLEAR     41  30  65 N14       29.61R
HEREFORD       CLEAR     50  14  23 W17G29    29.70R
PAMPA          CLEAR     53  10  18 W24G33    29.62R
PERRYTON       CLEAR     46  35  66 N20       29.58R
$$

TXZ026-029-035-045-048-250100-
SOUTHERN PANHANDLE/SOUTH PLAINS/ROLLING PLAINS

CITY           SKY/WX    TMP DP  RH WIND       PRES   REMARKS
CHILDRESS      CLEAR     62  29  28 NW18G25   29.63R
SEMINOLE       CLEAR     58  19  22 W21G32    29.73R
LUBBOCK        CLEAR     57  10  15 W18       29.67R
PLAINVIEW      CLEAR     53  20  27 NW17G23   29.67R
SNYDER         CLEAR     64  30  28 W15G29    29.70R
$$

TXZ052-054-060>062-072-078-127-140-154-169-250100-
PERMIAN BASIN/CONCHO VALLEY/BIG COUNTRY/EDWARDS PLATEAU

CITY           SKY/WX    TMP DP  RH WIND       PRES   REMARKS
ABILENE        CLEAR     67  33  28 NW8       29.64R
BIG SPRING     CLEAR     64  30  28 W14       29.73R
BROWNWOOD      PTCLDY    77  36  22 N6        29.60R
JUNCTION       CLEAR     81  35  19 SW8       29.62R
MIDLAND        CLEAR     64  29  26 NW9       29.71R
ODESSA         CLEAR     62  28  27 NW13G24   29.72R
SAN ANGELO     CLEAR     71  34  25 NW8       29.63R
SONORA         CLEAR     77  32  19 S8G15     29.66R
SWEETWATER     CLEAR     66  31  27 W15G22    29.71R
WINK           CLEAR     62  28  27 W24G31    29.71R
$$

TXZ055-058-074-075-080-082-250100-
FAR WEST/SOUTHWEST MOUNTAINS/TRANS PECOS

CITY           SKY/WX    TMP DP  RH WIND       PRES   REMARKS
ALPINE         PTCLDY    64  26  23 W12       29.82R
DRYDEN           N/A     84  21  10 SW16G26   29.60R
EL PASO        PTCLDY    52  21  29 W15G26    29.81S
FORT STOCKTON  CLEAR     65  31  28 N15       29.72R
GUADALUPE PASS CLEAR     46  23  40 SW44G54   29.74F
MARFA          MOCLDY    58  28  32 W16G24    29.79R
PECOS          CLEAR     63  30  29 W20G28    29.73R
$$

TXZ014-016-019-021>030-083-250100
TEXAS TECH WEST TEXAS MESONET/TEXAS PANHANDLE/NORTHERN SOUTH PLAINS

CITY           SKY/WX    TMP DP  RH WIND       PRES   REMARKS
ABERNATHY 5ENE   N/A     56  12  17 W20       29.67R
AMARILLO 9NNE    N/A     51  11  20 W25       29.65R
AMARILLO 7SSE    N/A     50  10  19 W22       29.67R
AMHERST 1NE      N/A     54   5  13 W18       29.69R
BOOTLEG 11WNW    N/A     46  11  25 W17       29.71R
CANADIAN 6E      N/A     57  13  17 SW23      29.53R
CAPROCK CYN SP   N/A     57  21  24 W16       29.67R
CHILDRESS 2NNE   N/A     63  30  28 W14       29.61R
CLARENDON 2WSW   N/A     55  14  19 W17       29.65R
CLAUDE 12SW      N/A     52  12  20 W23       29.66R
DIMMITT 2NE      N/A     49  15  25 W22       29.69R
FLOYDADA 2NNE    N/A     56  15  19 W18       29.66R
FRIONA 2NE       N/A     48  11  22 W18       29.70R
GOODLETT 3W      N/A     64  30  27 W13       29.59R
HART 3N          N/A     50  18  28 W22       29.68R
HEREFORD 2NW     N/A     49  13  23 W17       29.69R
MCLEAN 1E        N/A     56   9  15 W26G37    29.62R
MEMPHIS 1NE      N/A     61  22  21 W17       29.63R
MULESHOE 2SSW    N/A     53   9  17 W14       29.70R
OLTON 6S         N/A     54  13  19 W21       29.68R
PALO DURO SP     N/A     51  14  22 W18       29.68R
PAMPA 2E         N/A     53   8  16 SW24      29.61R
PLAINVIEW 1S     N/A     55  21  27 W18       29.66R
SILVERTON 7ESE   N/A     54  19  25 W21       29.67R
TULIA 2ENE       N/A     52  19  27 W22       29.67R
TURKEY 2WSW      N/A     59  24  26 W18G29    29.65R
UMBARGER 3NNE    N/A     49  14  24 W23G32    29.68R
$$

TXZ033>036-039>041-045>048-250100
TEXAS TECH WEST TEXAS MESONET/SOUTH PLAINS

CITY           SKY/WX    TMP DP  RH WIND       PRES   REMARKS
AIKEN 3WSW       N/A     54  24  31 W14       29.68R
ANDREWS 2NE      N/A     61  23  23 W21G35    29.71R
ANTON 6SSW       N/A     57  11  16 W20       29.69R
BROWNFIELD 2S    N/A     58  15  18 W17       29.69R
DENVR CTY 7WNW   N/A     56  11  16 W17       29.71R
GAIL 2ESE        N/A     63  26  24 W16       29.68R
LAMESA 2SE       N/A     60  22  22 W24       29.69R
LEVELLAND 4S     N/A     56   9  15 W15       29.69R
LUBBOCK 3WNW     N/A     59  12  15 W18       29.68R
MORTON 1ENE      N/A     55   3  12 W20       29.70R
ODONNELL 1N      N/A     60  16  18 W21       29.68R
PLAINS 3N        N/A     56  15  19 W20       29.70R
RALLS 1SE        N/A     59  18  20 W15       29.67R
REESE CENTER     N/A     56   8  14 W22       29.68R
SEAGRAVES 1SW    N/A     58  13  16 W21       29.70R
SEMINOLE 2NNE    N/A     59  15  18 W22G31    29.71R
SLATON 2NE       N/A     60  16  18 W17G26    29.67R
SNYDER 3E        N/A     64  29  26 W18       29.67R
SUNDOWN 8SW      N/A     56  13  18 W17       29.69R
TAHOKA 3NNE      N/A     59  15  17 W23       29.67R
WOLFFORTH 6SSW   N/A     59  16  19 W18       29.68R
$$

TXZ031-032-036>038-042>044-250100-
TEXAS TECH WEST TEXAS MESONET/ROLLING PLAINS

CITY           SKY/WX    TMP DP  RH WIND       PRES   REMARKS
ASPERMONT 3NE    N/A     69  26  20 W18       29.64R
FLUVANNA 3WNW    N/A     62  25  24 W21       29.67R
GRAHAM 5SSW      N/A     61  17  18 W21       29.66R
GUTHRIE 10WSW    N/A     67  20  16 W20       29.62R
HASKELL 1NW      N/A     69  29  23 W15       29.63R
JAYTON 1SSE      N/A     67  22  18 W23G33    29.63R
LK A HENRY 1NW   N/A     64  23  20 W17       29.66R
NORTHFIELD 1S    N/A     62  28  27 W23G32    29.64R
ODELL 4ENE       N/A     66  31  27 W9        29.59R
PADUCAH 10SW     N/A     66  16  15 W24       29.60R
POST 1NE         N/A     63  17  17 W16       29.66R
RRING SPRGS 3N   N/A     61  22  21 W16       29.63R
SEYMOUR 3NW      N/A     70  29  22 W18       29.61R
SPUR 1W          N/A     64  14  14 W16G26    29.63R
WEINERT 2NNE     N/A     69  30  23 W16       29.63R
WHITE RVR 6NE    N/A     62  15  15 W20       29.64R
$$

TXZ052-054-060>062-072-078-127-140-154-169-250100-
TEXAS TECH WEST TEXAS MESONET/PERMIAN BASIN/
CONCHO VALLEY/BIG COUNTRY/EDWARDS PLATEAU

CITY           SKY/WX    TMP DP  RH WIND       PRES   REMARKS
COYANOSA 2N      N/A     66  30  26 W12       29.71R
JUNCTION 1SSW    N/A     83  36  18 S7        29.63R
MERTZON 3NNE     N/A     73  34  24 NW9       29.66R
SAN ANGELO 7NW   N/A     73  30  20 NW9       29.63R
STRLNG CT 4WSW   N/A     69  31  24 W8        29.69R
ST LAWRNCE 5SW   N/A     66  29  25 W16       29.70R
SWEETWATR 11SW   N/A     66  34  30 W16       29.69R
WALL 1E          N/A     75  34  22 CALM      29.63R
$$

TXZ055-058-074-075-080-082-250100-
TEXAS TECH WEST TEXAS MESONET/FAR WEST/SOUTHWEST MOUNTAINS/TRANS PECOS

CITY           SKY/WX    TMP DP  RH WIND       PRES   REMARKS
PRSMN GAP BBNP   N/A     82  19  10 SW24      29.65R
GUADLPE MTN NP   N/A     44  22  41 W28G38    29.78R
$$




USA.gov is the U.S. government's official web portal to all federal, state and local government web resources and services.